Weather History for Ogden, UT

Change the Weather History Date:

Monday, March 31, 2014

  Actual Average Record
Temperature  
Mean Temperature 39 °F -  
Max Temperature 48 °F 58 °F 77 °F (2012)
Min Temperature 30 °F 32 °F 21 °F (1948)
Degree Days  
Heating Degree Days 26    
Moisture  
Dew Point 25 °F    
Average Humidity 58    
Maximum Humidity 82    
Minimum Humidity 27    
Precipitation  
Precipitation 0.00 in - - ()
Sea Level Pressure  
Sea Level Pressure 29.94 in    
Wind  
Wind Speed 6 mph (SSE)    
Max Wind Speed 9 mph    
Max Gust Speed 26 mph    
Visibility 10 miles    
Events Rain    
Averages and records for this station are not official NWS values.
T = Trace of Precipitation, MM = Missing Value Source: NWS Daily Summary

Daily Weather History Graph

Daily Weather History Graph

Search for Another Location

Airport:

Trip Planner

Search our weather history database for the weather conditions in past years. The results will help you decide how hot, cold, wet, or windy it might be!

Date:

Astronomy

Mar. 31, 2014 Rise Set
Actual Time 7:12 AM MDT 7:52 PM MDT
Civil Twilight 6:45 AM MDT 8:19 PM MDT
Nautical Twilight 6:12 AM MDT 8:52 PM MDT
Astronomical Twilight 5:38 AM MDT 9:26 PM MDT
Moon 7:38 AM MDT (3/31) 9:15 PM MDT (3/31)
Length of Visible Light 13h 34m
Length of Day
12h 39m
New Moon, 1% of the Moon is Illuminated
Mar 31
New Moon
Apr 7
First Quarter
Apr 15
Full
Apr 22
Last Quarter
Apr 29
New

Hourly Weather History & Observations

Time (MDT) Temp. Windchill Dew Point Humidity Pressure Visibility Wind Dir Wind Speed Gust Speed Precip Events Conditions
12:53 AM 36.0 °F 32.1 °F 28.9 °F 76% 29.99 in 10.0 mi SW 4.6 mph - N/A   Clear
1:53 AM 35.1 °F 29.3 °F 28.0 °F 76% 30.02 in 10.0 mi SW 6.9 mph - N/A   Clear
2:53 AM 32.0 °F 26.4 °F 27.0 °F 82% 30.04 in 10.0 mi South 5.8 mph - N/A   Clear
3:53 AM 32.0 °F 25.6 °F 27.0 °F 82% 30.05 in 10.0 mi South 6.9 mph - N/A   Clear
4:53 AM 32.0 °F 26.4 °F 27.0 °F 82% 30.04 in 10.0 mi SSE 5.8 mph - N/A   Clear
5:53 AM 32.0 °F 26.4 °F 27.0 °F 82% 30.04 in 10.0 mi SSE 5.8 mph - N/A   Clear
6:53 AM 30.9 °F 23.5 °F 26.1 °F 82% 30.03 in 10.0 mi South 8.1 mph - N/A   Clear
7:53 AM 32.0 °F 25.6 °F 26.1 °F 79% 30.03 in 10.0 mi South 6.9 mph - N/A   Clear
8:53 AM 36.0 °F 31.1 °F 28.0 °F 73% 30.03 in 10.0 mi SSE 5.8 mph - N/A   Clear
9:53 AM 41.0 °F 37.1 °F 28.9 °F 62% 30.01 in 10.0 mi SSE 5.8 mph - N/A   Clear
10:53 AM 43.0 °F 38.2 °F 25.0 °F 49% 30.01 in 10.0 mi ESE 8.1 mph - N/A   Clear
11:53 AM 44.1 °F 42.5 °F 23.0 °F 43% 30.00 in 10.0 mi SE 3.5 mph - N/A   Partly Cloudy
12:53 PM 46.0 °F 41.9 °F 21.0 °F 37% 29.96 in 10.0 mi South 8.1 mph - N/A   Clear
1:53 PM 46.9 °F - 19.9 °F 34% 29.94 in 10.0 mi Calm Calm - N/A   Clear
2:53 PM 48.0 °F - 18.0 °F 30% 29.91 in 10.0 mi South 5.8 mph - N/A   Clear
3:53 PM 48.0 °F - 15.1 °F 27% 29.88 in 10.0 mi SSW 3.5 mph - N/A   Mostly Cloudy
4:53 PM 48.0 °F - 16.0 °F 28% 29.86 in 10.0 mi Calm Calm - N/A   Overcast
5:53 PM 48.0 °F - 17.1 °F 29% 29.85 in 10.0 mi Calm Calm - N/A   Overcast
6:53 PM 48.0 °F - 19.9 °F 33% 29.82 in 10.0 mi ESE 5.8 mph - N/A   Overcast
7:49 PM 44.6 °F 39.7 °F 24.8 °F 46% 29.85 in 10.0 mi SSE 9.2 mph 26.5 mph N/A   Overcast
7:53 PM 45.0 °F 40.1 °F 24.1 °F 44% 29.84 in 10.0 mi SSE 9.2 mph 26.5 mph N/A   Overcast
8:53 PM 42.1 °F 38.4 °F 28.0 °F 58% 29.83 in 10.0 mi ENE 5.8 mph - N/A   Overcast
9:53 PM 43.0 °F 37.7 °F 28.0 °F 56% 29.81 in 10.0 mi SSE 9.2 mph - N/A   Overcast
10:53 PM 39.0 °F 34.0 °F 33.1 °F 79% 29.80 in 10.0 mi South 6.9 mph - 0.00 in Rain Light Rain
11:53 PM 39.0 °F 34.0 °F 34.0 °F 82% 29.76 in 10.0 mi SSE 6.9 mph - 0.00 in Rain Light Rain